Location: Adrasan
(36.3319°N, 30.4314°E)
Time: 11:17:37
(UTC+00:00)

Cosmos 2263 Rocket - Pass Details

Date: 09 December 2023
Orbit: 821 x 849 km, 71.0° (Epoch: 20 February)

Event Time Altitude Azimuth Distance (km) Brightness Sun altitude
Rises 15:02:07 0° 239° (WSW) 3,342 8.1 -4.3°
Reaches altitude 10° 15:05:08 10° 255° (WSW) 2,414 6.4 -4.8°
Maximum altitude 15:09:14 21° 303° (WNW) 1,778 4.3 -5.6°
Drops below altitude 10° 15:13:22 10° 352° (N) 2,430 4.4 -6.3°
Sets 15:16:26 0° 8° (N) 3,370 5.0 -6.9°
